User: anonymous   Login
Location: Dover
(39.1580°N, 75.5250°W)
Time: 19:54:06
(UTC-05:00)
Language:

Cosmos 1437 Rocket - Orbit

View from above orbital plane
View from above orbital plane
View from above satellite
View from above satellite

Ground track
Ground track

The orbit data is extracted from the following two-line orbital elements,

1 13771U 83003B   14326.14777108  .00003624  00000-0  23774-3 0  1818
2 13771 081.1566 003.1305 0029974 226.9585 132.9128 15.07077691732335
Epoch (UTC): 22 November 2014 03:32:47
Eccentricity: 0.0029974
inclination: 81.1566°
perigee height: 524 km
apogee height: 566 km
right ascension of ascending node: 3.1305°
argument of perigee: 226.9585°
revolutions per day: 15.07077691
mean anomaly at epoch: 132.9128°
orbit number at epoch: 73233

The dashed part of the orbit path shows where the satellite is in the earth's shadow,  

DLR